Regional Weather Roundup
Issued by NWS State College, PA

Home | Current Version | Previous Version | Text Only | Print | Product List | Glossary On
Versions: 1 2 3 4 5 6 7 8 9 10 11 12 13 14 15 16 17 18 19 20 21 22 23 24 25 26 27 28 29 30 31 32 33 34 35 36 37 38 39 40 41 42 43 44 45 46 47 48 49 50
000
ASUS41 KCTP 230810
RWRCTP

REGIONAL WEATHER ROUNDUP
NATIONAL WEATHER SERVICE STATE COLLEGE PA
400 AM EDT THU MAR 23 2017

Note: "fair" indicates few or no clouds below 12,000 feet with no
significant weather and/or obstructions to visibility.

* = STATION THAT DOES NOT REPORT PRECIPITATION /E.G. RAIN...SNOW...ETC/
    THUNDER OR FOG.

PAZ002>004-007>009-013>016-020>023-029>032-230900-
WESTERN PENNSYLVANIA

CITY           SKY/WX    TMP DP  RH WIND       PRES   REMARKS
ERIE           CLEAR     19  13  77 S3        30.55R
MEADVILLE      CLEAR     19  11  70 CALM      30.49S
FRANKLIN*      CLEAR     18   7  62 CALM      30.49S
NEW CASTLE     FAIR      15  10  80 CALM      30.53S
BEAVER COUNTY  NOT AVBL
BUTLER*        CLEAR     18  10  73 CALM      30.51S
PITTSBURGH INT CLEAR     21  11  65 CALM      30.50S
PITTSBURGH     CLEAR     22   5  48 CALM      30.49S
INDIANA*       CLEAR     18  10  73 CALM      30.52R
LATROBE        CLEAR     18   9  68 MISG      30.52S
WASHINGTON CO* CLEAR     16   9  73 CALM      30.51F
$$

PAZ004>006-010>012-017>019-024>028-033>037-041-042-045-046-049>053-230900-
CENTRAL PENNSYLVANIA

CITY           SKY/WX    TMP DP  RH WIND       PRES   REMARKS
BRADFORD       CLEAR     10   7  87 CALM      30.42R
DUBOIS         CLEAR     14   4  64 CALM      30.44S
CLEARFIELD       N/A    N/A N/A N/A MISG      30.47R
JOHNSTOWN      CLEAR     17   4  56 N6        30.40S WCI   9
ALTOONA        CLEAR     21   4  47 CALM      30.47R
STATE COLLEGE  CLEAR     19   5  53 CALM      30.49R
WILLIAMSPORT   PTCLDY    22   6  50 W5        30.52R
SELINSGROVE    CLEAR     19  10  68 CALM      30.53R
FT INDIANTOWN  CLEAR     22   1  39 NW3       30.51S
CAPITAL CITY   CLEAR     28   0  29 N5        30.53R
HARRISBURG     CLEAR     26   2  35 N5        30.53R
YORK           CLEAR     18  11  74 CALM      30.52R
$$

PAZ038>040-043-044-047-048-054-055-060>062-067>071-230900-
EASTERN PENNSYLVANIA

CITY           SKY/WX    TMP DP  RH WIND       PRES   REMARKS
SCRANTON       CLEAR     19   4  51 CALM      30.47R
MOUNT POCONO   CLEAR     13   4  67 NW12G17   30.35S WCI  -1
ALLENTOWN      CLEAR     21   4  47 W5        30.50S WCI  15
QUAKERTOWN*    MOSUNNY   19   5  53 NW5       30.50S WCI  13
READING        CLEAR     23   5  46 CALM      30.52R
LANCASTER      CLEAR     23   5  46 CALM      30.52R
COATESVILLE    SUNNY     23   3  42 N5        30.51R
POTTSTOWN      CLEAR     21   3  45 NW7       30.53S WCI  12
BLUE BELL      CLEAR     23   5  46 CALM      30.51R
DOYLESTOWN     PTCLDY    18   6  59 NW6       30.49S WCI  10
WILLOW GROVE   NOT AVBL
NORTH PHILA    CLEAR     23   5  46 NW7       30.54R WCI  15
PHILADELPHIA   CLEAR     25   4  40 N15G24    30.54R WCI  13
$$




USA.gov is the U.S. government's official web portal to all federal, state and local government web resources and services.